Ponca City, OK

8:40 PM CDT on October 19, 2019 (GMT -0500)
Ponca City Municipal

Weather History for KPNC - July, 2019

Change the Weather History Date:

Saturday, July 20, 2019

  Actual Average Record
Temperature  
Mean Temperature 88 °F -  
Max Temperature 99 °F 95 °F 108 °F (2006)
Min Temperature 78 °F 68 °F 56 °F (1971)
Cooling Degree Days 24    
Growing Degree Days 38 (Base 50)    
Moisture  
Dew Point 69 °F    
Average Humidity 55    
Maximum Humidity 76    
Minimum Humidity 36    
Precipitation  
Precipitation 0.00 in - - ()
Sea Level Pressure  
Sea Level Pressure 29.79 in    
Wind  
Wind Speed 12 mph (South)    
Max Wind Speed 15 mph    
Max Gust Speed 23 mph    
Visibility 10 miles    
Events      
Averages and records for this station are not official NWS values.
T = Trace of Precipitation, MM = Missing Value Source: NWS Daily Summary

Daily Weather History Graph

Daily Weather History Graph

Search for Another Location

Airport or City:

Astronomy

Jul. 20, 2019 Rise Set
Actual Time 6:24 AM CDT 8:44 PM CDT
Civil Twilight 5:55 AM CDT 9:13 PM CDT
Nautical Twilight 5:18 AM CDT 9:50 PM CDT
Astronomical Twilight 4:39 AM CDT 10:29 PM CDT
Moon 11:17 PM CDT 9:45 AM CDT
Length of Visible Light 15h 18m
Length of Day
14h 19m
Waning Gibbous, 87% of the Moon is Illuminated
Jul 20
Waning Gibbous
Jul 24
Last Quarter
Jul 31
New
Aug 7
First Quarter
Aug 15
Full

Hourly Weather History & Observations

Time (CDT) Temp. Heat Index Dew Point Humidity Pressure Visibility Wind Dir Wind Speed Gust Speed Precip Events Conditions
12:53 AM 82.9 °F 86.5 °F 69.1 °F 63% 29.80 in 10.0 mi SSE 15.0 mph 20.7 mph N/A   Clear
1:53 AM 82.9 °F 86.5 °F 69.1 °F 63% 29.80 in 10.0 mi South 11.5 mph 18.4 mph N/A   Clear
2:53 AM 82.0 °F 85.5 °F 69.1 °F 65% 29.79 in 10.0 mi South 10.4 mph - N/A   Clear
3:53 AM 81.0 °F 84.4 °F 70.0 °F 69% 29.80 in 10.0 mi South 11.5 mph 18.4 mph N/A   Clear
4:53 AM 80.1 °F 83.2 °F 70.0 °F 71% 29.80 in 10.0 mi South 11.5 mph 18.4 mph N/A   Clear
5:53 AM 79.0 °F - 70.0 °F 74% 29.81 in 10.0 mi SSE 13.8 mph - N/A   Clear
6:53 AM 78.1 °F - 70.0 °F 76% 29.81 in 10.0 mi South 11.5 mph - N/A   Clear
7:53 AM 80.1 °F 83.6 °F 71.1 °F 74% 29.82 in 10.0 mi South 11.5 mph 20.7 mph N/A   Clear
8:53 AM 82.9 °F 87.5 °F 71.1 °F 67% 29.82 in 10.0 mi South 6.9 mph 17.3 mph N/A   Clear
9:53 AM 88.0 °F 93.8 °F 71.1 °F 57% 29.81 in 10.0 mi South 8.1 mph 19.6 mph N/A   Clear
10:53 AM 91.0 °F 97.6 °F 71.1 °F 52% 29.81 in 10.0 mi South 8.1 mph 19.6 mph N/A   Clear
11:53 AM 93.0 °F 100.7 °F 72.0 °F 50% 29.81 in 10.0 mi SSW 11.5 mph 20.7 mph N/A   Clear
12:53 PM 95.0 °F 103.2 °F 72.0 °F 47% 29.81 in 10.0 mi SSW 12.7 mph 20.7 mph N/A   Clear
1:53 PM 97.0 °F 105.5 °F 72.0 °F 44% 29.79 in 10.0 mi South 11.5 mph 19.6 mph N/A   Clear
2:53 PM 98.1 °F 105.0 °F 70.0 °F 40% 29.78 in 10.0 mi South 10.4 mph 20.7 mph N/A   Clear
3:53 PM 99.0 °F 106.2 °F 70.0 °F 39% 29.76 in 10.0 mi South 11.5 mph 19.6 mph N/A   Clear
4:53 PM 99.0 °F 104.2 °F 68.0 °F 36% 29.75 in 10.0 mi South 10.4 mph 23.0 mph N/A   Clear
5:53 PM 97.0 °F 101.0 °F 66.9 °F 37% 29.75 in 10.0 mi South 13.8 mph 23.0 mph N/A   Clear
6:53 PM 96.1 °F 99.3 °F 66.0 °F 37% 29.75 in 10.0 mi SSW 10.4 mph 23.0 mph N/A   Clear
7:53 PM 93.9 °F 97.0 °F 66.0 °F 40% 29.75 in 10.0 mi South 8.1 mph 20.7 mph N/A   Clear
8:53 PM 91.0 °F 93.8 °F 66.0 °F 44% 29.78 in 10.0 mi Variable 6.9 mph - N/A   Clear
9:53 PM 87.1 °F 91.3 °F 69.1 °F 55% 29.80 in 10.0 mi SSE 12.7 mph - N/A   Clear
10:53 PM 84.9 °F 88.2 °F 68.0 °F 57% 29.82 in 10.0 mi SSE 10.4 mph - N/A   Clear
11:53 PM 84.9 °F 87.6 °F 66.9 °F 55% 29.82 in 10.0 mi South 9.2 mph - N/A   Clear